Location: Elstree
(51.6403°N, 0.2969°W)
Time: 14:40:36
(UTC+00:00)

Cosmos 1354 Rocket - Pass Details

Date: 21 June 2021
Orbit: 764 x 783 km, 74.0° (Epoch: 25 July)

Event Time Altitude Azimuth Distance (km) Brightness Sun altitude
Rises 21:07:01 0° 338° (NNW) 3,285 9.0 -5.6°
Reaches altitude 10° 21:09:39 10° 348° (NNW) 2,353 7.7 -5.9°
Maximum altitude 21:14:28 33° 52° (NE) 1,305 5.2 -6.3°
Drops below altitude 10° 21:19:15 10° 116° (ESE) 2,340 6.0 -6.8°
Enters shadow 21:20:13 - 120° (ESE) 2,672 6.2 -6.9°
